Wind_Speed
9 8 7 6 5 4 2 1 1 1 2 4 5 5 6 6 7 7 6 6 6 7 7 5 4 4 4 4 4 3 3 2 2 2 2 1 1 1 1 1 1 1 2 2
10 10 9 8 7 5 3 1 1 1 1 2 3 4 4 5 6 6 6 5 6 6 6 6 4 3 3 4 3 3 2 1 1 1 0 1 0 1 2 2 2 2 3 4
12 12 11 10 9 7 5 4 3 2 1 1 2 3 3 4 5 5 5 5 5 5 5 5 5 4 4 4 3 3 3 2 2 2 2 2 2 3 3 3 3 4 4 5
15 14 13 12 11 9 8 7 5 4 2 2 1 2 3 3 4 4 4 4 4 4 4 4 4 4 4 3 3 3 3 3 3 3 3 4 4 4 4 4 4 5 6 6
17 16 15 13 12 11 10 8 7 5 4 3 3 2 3 3 3 4 4 4 4 4 3 4 4 4 4 4 3 4 4 4 3 3 4 4 4 4 4 4 5 6 7 7
19 18 17 15 14 13 11 10 8 7 6 6 6 4 4 5 4 5 5 4 4 4 4 4 4 5 4 4 4 4 5 5 4 4 4 5 5 5 5 6 7 7 7 7
20 19 18 17 15 14 13 10 8 8 8 8 8 6 6 6 5 6 6 6 5 5 5 5 5 5 5 5 5 6 6 6 6 6 6 6 6 7 7 8 8 8 9 9
20 19 19 18 17 16 15 14 12 10 9 9 9 8 8 7 7 7 7 6 6 6 6 6 6 6 6 6 6 7 7 7 8 8 8 8 8 8 9 9 9 9 10 10
21 20 20 20 19 18 17 16 15 13 12 10 10 11 10 10 9 9 9 9 8 8 8 9 8 8 8 8 8 8 9 10 10 10 10 10 10 11 11 11 11 10 11 12
22 21 22 21 20 20 19 17 15 14 13 11 11 10 11 11 11 11 11 10 9 10 11 11 11 11 10 10 10 10 11 11 12 12 12 12 12 13 13 13 12 12 13 13
24 23 23 23 23 21 20 19 17 16 15 12 12 12 13 12 12 12 12 12 11 12 12 12 13 13 13 13 13 13 13 13 13 13 13 13 14 15 15 14 14 15 15 15
24 24 24 24 23 23 22 20 19 18 18 16 14 14 14 14 14 14 14 14 14 13 14 14 14 15 15 15 15 15 15 15 15 15 15 15 16 16 16 16 16 17 17 18
25 25 24 24 24 24 24 23 21 20 19 18 16 16 17 16 16 16 16 16 16 16 16 16 16 17 17 17 17 17 17 17 17 17 17 17 18 18 17 17 17 18 18 19
26 26 25 24 24 25 25 25 23 22 21 21 20 19 20 19 19 19 19 19 19 19 18 18 18 18 19 19 19 19 19 19 19 19 19 20 20 19 19 19 20 20 20 21
27 28 28 27 26 25 26 25 25 25 24 23 23 23 23 22 21 21 21 21 21 21 21 20 20 21 21 21 21 21 21 21 21 21 21 21 22 22 22 21 22 22 23 23
28 28 28 28 27 27 27 27 27 27 27 26 26 26 25 24 24 23 23 23 23 23 23 23 23 23 23 23 24 24 24 23 23 23 23 23 24 24 24 24 24 25 25 25
28 28 28 28 28 28 29 28 28 29 28 28 27 26 25 25 25 25 24 25 25 25 25 25 26 25 26 26 26 25 25 25 24 24 24 25 25 26 26 26 27 27 27 27
29 28 28 28 29 30 30 28 29 29 29 29 29 28 28 27 27 27 26 26 27 27 27 28 28 27 28 28 27 27 27 27 26 26 26 26 27 27 28 28 29 29 29 29
29 29 29 28 29 30 30 29 30 30 30 30 30 30 30 29 29 29 28 28 29 29 29 29 29 29 29 29 28 28 28 28 27 28 29 29 29 29 29 30 31 31 30 30
29 28 29 29 28 28 30 28 28 29 31 30 31 31 31 30 30 30 30 30 30 30 30 30 30 30 30 30 29 29 29 29 30 30 31 32 31 32 33 32 33 32 32 31
28 28 29 29 28 29 29 28 27 29 31 30 30 31 31 32 32 31 31 32 32 32 32 31 31 31 31 31 31 31 31 32 33 33 34 34 34 34 34 34 34 34 33 33
29 29 30 30 29 30 30 29 30 31 30 30 31 31 32 32 31 31 31 32 31 31 31 32 32 32 33 33 33 33 33 34 34 35 35 35 35 36 36 35 35 35 35 35
29 30 31 30 30 31 30 29 30 30 30 30 31 31 32 32 32 32 32 31 32 32 32 32 33 33 33 34 35 35 34 35 36 36 37 37 37 37 37 37 37 36 37 37
29 29 30 30 30 30 29 29 30 30 30 31 31 31 31 32 32 32 32 32 32 33 34 34 34 35 35 35 36 36 36 36 36 37 37 38 38 37 37 37 37 38 38 37
29 29 29 29 29 29 29 29 29 29 30 30 29 30 31 32 32 32 32 32 33 34 34 35 35 36 36 36 37 37 38 37 37 37 38 39 39 39 38 37 37 37 37 37
28 28 28 29 29 29 28 28 28 29 30 30 30 31 31 32 32 32 32 32 33 34 35 35 35 36 36 36 37 38 38 38 38 39 39 39 40 40 38 38 37 38 37 37
Wind_Direction
197 197 196 197 198 203 195 131 84 43 45 62 62 54 45 43 41 40 39 37 35 35 39 41 46 59 68 76 89 102 105 114 122 138 149 121 118 81 3 323 320 324 320 305
207 208 210 210 215 218 228 222 245 300 1 54 58 45 41 36 32 32 32 33 31 30 33 35 36 49 58 62 79 88 77 75 87 172 168 75 47 347 325 322 313 305 313 306
214 217 220 219 222 228 241 240 246 259 295 21 46 29 18 22 21 23 24 25 26 30 28 32 38 41 43 45 44 37 23 9 340 315 316 316 307 310 320 323 320 305 309 307
218 222 224 225 226 230 237 235 236 250 282 289 310 358 334 354 3 11 20 20 17 19 17 21 24 27 26 22 18 11 1 349 339 321 297 294 292 295 300 306 311 307 307 300
223 225 226 226 226 229 232 235 235 243 260 264 280 290 299 316 330 339 350 353 356 1 360 4 6 8 8 2 356 350 346 338 328 317 313 306 298 296 295 302 308 312 316 310
225 223 224 225 227 231 234 238 241 247 256 261 259 255 274 283 295 308 318 323 325 331 335 338 339 344 350 347 340 337 336 334 331 320 314 313 306 297 299 302 308 315 319 319
225 224 224 225 228 233 233 235 242 251 253 258 260 259 258 268 282 295 305 309 309 310 312 320 324 325 328 328 326 323 320 317 314 306 300 302 305 299 295 298 301 309 311 314
227 226 226 224 226 231 234 234 233 241 250 260 264 260 261 265 272 283 293 298 298 298 296 300 306 312 312 311 313 314 314 311 306 301 298 297 302 301 298 301 303 306 308 309
226 227 230 226 227 228 232 234 237 245 249 251 259 264 263 261 268 278 281 286 283 286 289 293 293 300 302 300 302 306 307 305 301 297 297 298 298 297 296 297 300 304 305 305
228 230 234 233 232 231 232 235 239 240 243 250 259 263 264 263 266 273 280 279 277 280 284 288 287 288 290 296 299 299 300 302 301 297 296 299 299 298 296 294 298 301 301 302
228 232 236 236 235 236 235 236 238 241 239 244 254 259 263 265 265 270 274 276 275 277 281 286 286 284 285 288 292 293 293 295 296 295 296 299 299 297 295 297 298 298 300 301
228 233 237 238 237 237 235 238 239 242 244 242 247 258 261 267 266 269 270 272 272 275 277 279 283 284 286 288 288 288 288 290 292 293 293 297 299 298 298 298 298 297 296 298
230 232 237 240 240 239 237 238 240 242 246 248 251 259 261 266 267 267 267 268 271 272 274 277 282 286 288 289 290 290 289 291 292 290 292 298 300 298 298 298 297 297 297 298
233 235 235 238 242 244 242 240 242 244 247 250 251 253 260 263 267 267 266 267 269 272 274 276 280 282 285 287 289 291 290 290 291 291 293 296 299 297 297 297 296 295 296 297
235 237 238 239 239 240 243 244 245 246 250 252 254 257 258 262 264 265 266 267 270 271 274 275 277 280 282 284 287 286 286 287 287 288 290 292 296 297 297 296 296 296 295 295
237 239 240 242 243 245 246 246 247 249 251 254 256 259 260 262 263 262 263 266 268 270 271 273 273 276 280 282 282 282 282 284 284 286 287 289 292 294 294 294 294 295 295 294
240 240 241 244 245 248 249 248 249 250 252 254 256 258 260 260 261 261 263 263 265 268 270 272 273 275 278 280 279 278 280 281 281 284 286 287 289 291 292 293 293 293 293 292
239 240 242 244 247 248 250 251 252 253 254 255 256 257 259 260 260 261 262 262 263 265 268 270 272 273 275 276 276 275 279 280 282 284 285 286 287 288 289 290 291 292 292 292
239 241 243 245 248 251 251 251 252 254 255 256 258 259 260 260 260 260 261 262 264 264 265 268 269 271 272 273 274 275 277 279 281 282 284 286 286 286 287 289 290 290 291 291
238 242 244 246 248 252 255 255 254 256 257 258 259 260 260 260 260 261 262 263 265 265 266 267 267 268 270 271 272 274 276 277 279 282 283 284 285 287 288 288 288 289 289 288
240 243 246 248 250 253 254 256 257 258 260 260 261 260 260 259 259 261 264 265 265 265 266 266 267 268 268 270 271 273 274 275 278 279 282 283 284 285 286 286 286 287 287 287
244 247 248 249 251 254 255 257 257 260 262 262 261 259 259 259 260 261 263 264 263 263 265 266 267 268 269 271 271 272 273 274 276 279 280 283 283 284 285 284 284 285 286 286
245 247 250 252 254 256 258 259 260 262 262 262 262 261 261 261 262 264 264 263 262 264 266 267 268 270 270 270 271 273 275 275 277 279 280 282 284 284 285 285 284 284 285 285
247 248 251 254 254 256 257 258 261 261 261 261 262 261 261 262 262 262 261 261 263 265 267 268 269 270 270 270 272 275 276 276 277 279 280 282 284 284 285 285 285 284 284 284
249 250 252 254 256 258 260 261 262 261 261 261 263 264 263 261 262 262 264 265 265 267 268 269 270 271 273 273 274 275 276 276 277 279 280 282 283 285 284 284 285 284 283 283
249 251 253 254 256 258 259 260 262 262 262 264 264 264 262 262 264 265 265 267 268 269 269 270 272 273 274 274 275 276 277 277 278 279 280 281 282 282 282 283 283 284 283 283
Height
5923 5926 5927 5928 5928 5929 5929 5929 5929 5929 5928 5928 5927 5926 5925 5924 5923 5922 5921 5920 5919 5918 5917 5916 5915 5914 5913 5912 5912 5911 5911 5910 5910 5910 5909 5909 5909 5909 5908 5908 5908 5908 5907 5907
5923 5924 5925 5926 5927 5928 5928 5929 5929 5929 5928 5928 5928 5927 5926 5925 5924 5923 5922 5921 5920 5919 5918 5917 5916 5915 5915 5914 5913 5913 5912 5912 5911 5910 5910 5909 5909 5909 5909 5908 5908 5907 5907 5906
5921 5923 5923 5925 5926 5927 5928 5929 5929 5928 5928 5928 5929 5929 5927 5926 5925 5924 5923 5922 5921 5920 5920 5918 5917 5917 5916 5915 5914 5913 5913 5912 5911 5911 5910 5910 5909 5909 5909 5908 5908 5907 5906 5905
5918 5919 5921 5923 5925 5926 5927 5927 5927 5928 5928 5929 5929 5930 5928 5927 5926 5925 5924 5923 5922 5921 5920 5919 5918 5917 5917 5916 5915 5914 5913 5913 5912 5911 5910 5910 5909 5909 5908 5908 5907 5906 5905 5905
5915 5917 5919 5921 5923 5924 5925 5926 5926 5927 5928 5929 5929 5930 5930 5927 5926 5925 5924 5923 5923 5922 5920 5920 5919 5918 5917 5916 5915 5915 5914 5913 5912 5911 5910 5910 5909 5908 5908 5907 5906 5906 5905 5904
5912 5914 5916 5918 5920 5921 5923 5924 5925 5926 5927 5929 5928 5928 5929 5926 5925 5925 5924 5923 5922 5922 5921 5920 5919 5918 5917 5916 5915 5914 5913 5913 5912 5911 5910 5909 5908 5907 5907 5906 5905 5904 5903 5902
5908 5910 5913 5915 5917 5919 5921 5924 5926 5927 5928 5928 5926 5926 5927 5925 5924 5923 5923 5922 5922 5921 5920 5920 5919 5918 5917 5916 5915 5914 5913 5912 5911 5910 5909 5908 5907 5906 5905 5905 5904 5903 5901 5900
5905 5908 5910 5912 5914 5916 5918 5921 5924 5925 5927 5926 5924 5924 5924 5923 5922 5922 5922 5921 5920 5920 5919 5919 5918 5917 5917 5916 5915 5914 5913 5912 5910 5909 5908 5907 5906 5905 5904 5903 5902 5900 5899 5898
5902 5905 5907 5908 5911 5913 5915 5917 5919 5921 5922 5923 5923 5922 5921 5920 5920 5920 5920 5919 5919 5918 5918 5917 5917 5916 5915 5914 5913 5912 5911 5910 5909 5908 5906 5906 5905 5904 5902 5901 5900 5898 5897 5896
5898 5901 5902 5904 5907 5909 5911 5913 5915 5917 5918 5920 5921 5920 5920 5918 5918 5918 5917 5917 5917 5917 5916 5915 5915 5914 5913 5912 5911 5910 5909 5908 5907 5906 5904 5903 5902 5901 5900 5899 5898 5896 5895 5893
5894 5897 5898 5900 5902 5905 5907 5909 5911 5913 5914 5917 5918 5920 5916 5915 5915 5915 5915 5914 5914 5914 5913 5913 5912 5911 5911 5910 5909 5908 5907 5905 5904 5903 5902 5900 5899 5898 5897 5896 5894 5893 5891 5890
5888 5892 5894 5896 5898 5899 5902 5904 5906 5909 5909 5910 5913 5916 5911 5911 5911 5911 5911 5911 5911 5911 5910 5909 5909 5908 5907 5907 5906 5905 5904 5902 5901 5900 5899 5897 5896 5894 5893 5892 5891 5889 5888 5886
5883 5886 5889 5891 5894 5895 5896 5898 5901 5903 5904 5906 5908 5910 5906 5906 5907 5907 5907 5907 5907 5907 5906 5906 5905 5905 5904 5903 5902 5901 5900 5899 5897 5896 5895 5894 5892 5891 5890 5888 5886 5885 5883 5881
5877 5880 5884 5887 5888 5890 5891 5893 5895 5897 5899 5900 5902 5903 5902 5901 5902 5902 5902 5902 5902 5902 5902 5901 5901 5900 5900 5899 5898 5897 5896 5895 5894 5892 5891 5890 5888 5887 5885 5883 5882 5880 5878 5876
5871 5874 5876 5879 5881 5883 5885 5886 5888 5890 5892 5894 5895 5895 5896 5896 5896 5896 5896 5897 5897 5897 5897 5896 5896 5895 5895 5894 5893 5892 5891 5890 5889 5888 5887 5885 5884 5881 5880 5878 5876 5874 5872 5870
5864 5867 5869 5872 5873 5875 5877 5879 5881 5883 5885 5886 5887 5888 5888 5889 5889 5890 5890 5890 5891 5891 5890 5890 5890 5889 5889 5888 5887 5887 5886 5885 5884 5882 5881 5880 5878 5876 5874 5872 5870 5868 5866 5864
5857 5860 5863 5865 5867 5868 5870 5872 5874 5876 5877 5879 5879 5881 5881 5882 5882 5882 5883 5883 5884 5884 5884 5884 5883 5882 5882 5882 5881 5880 5879 5878 5877 5876 5875 5873 5872 5870 5868 5866 5864 5862 5860 5857
5851 5853 5855 5858 5860 5861 5865 5866 5867 5868 5869 5871 5871 5873 5874 5874 5875 5875 5875 5876 5876 5876 5877 5877 5876 5876 5875 5875 5874 5873 5872 5871 5870 5869 5868 5866 5865 5863 5861 5859 5857 5855 5852 5850
5843 5846 5848 5850 5852 5853 5856 5857 5859 5860 5861 5862 5863 5864 5865 5866 5866 5867 5867 5868 5868 5868 5868 5869 5869 5868 5868 5867 5867 5866 5865 5864 5863 5862 5861 5859 5857 5855 5853 5851 5849 5847 5845 5842
5836 5838 5841 5842 5844 5846 5848 5850 5850 5852 5852 5854 5855 5855 5856 5857 5858 5859 5859 5859 5860 5860 5860 5860 5860 5860 5860 5859 5859 5858 5858 5857 5855 5854 5852 5851 5849 5847 5845 5843 5840 5838 5836 5834
5829 5831 5833 5834 5836 5838 5839 5840 5842 5844 5844 5845 5845 5846 5847 5847 5849 5850 5850 5850 5850 5851 5851 5851 5851 5851 5851 5851 5850 5850 5849 5848 5847 5845 5844 5842 5840 5838 5836 5834 5832 5829 5827 5825
5822 5823 5825 5827 5829 5832 5831 5832 5834 5834 5835 5835 5836 5836 5837 5838 5839 5840 5840 5841 5841 5842 5842 5842 5842 5842 5842 5841 5841 5841 5840 5839 5837 5836 5834 5832 5830 5829 5826 5824 5822 5820 5817 5815
5814 5816 5817 5820 5822 5822 5822 5823 5824 5825 5825 5825 5826 5827 5828 5829 5830 5831 5831 5832 5832 5832 5833 5833 5832 5832 5832 5832 5831 5831 5830 5829 5827 5826 5824 5822 5820 5818 5816 5814 5812 5810 5808 5805
5806 5808 5809 5811 5812 5813 5813 5814 5815 5816 5816 5816 5817 5817 5818 5819 5820 5821 5821 5822 5822 5823 5823 5823 5822 5822 5822 5821 5821 5820 5819 5818 5817 5815 5814 5812 5810 5808 5806 5804 5802 5799 5797 5795
5798 5800 5801 5802 5803 5804 5805 5806 5806 5807 5807 5807 5808 5808 5809 5810 5811 5812 5812 5812 5812 5812 5812 5812 5812 5811 5811 5810 5810 5809 5808 5806 5805 5804 5802 5801 5799 5796 5794 5792 5791 5788 5786 5784
5790 5792 5793 5794 5795 5796 5797 5797 5798 5798 5798 5799 5799 5800 5800 5801 5801 5802 5802 5802 5802 5802 5801 5801 5800 5800 5799 5798 5798 5797 5796 5795 5794 5793 5791 5789 5787 5785 5783 5781 5779 5777 5775 5773